Find WHDW 16-07

NORAD ID: 67065 Int'l Des: 2025-295 Owner: ZXW Country: CN Constellation: xingwang operational
LEOCIRCULAR

現在のビュー

3D地球を読み込み中...

About WHDW 16-07

WHDW 16-07 (NORAD 67065) is a xingwang constellation satellite launched Dec 11, 2025 by ZXW of CN. It operates in LEO, CIRCULAR orbit with a mass of 800.00 kg.

WHDW 16-07について

説明を読み込み中...

次回通過

Passes for default location (London). Set your location on the main map for personalized predictions.

高度履歴

Loading altitude history...

軌道要素

1 67065U 25295G 26194.49441726 -.00000094 00000-0 65599-4 0 9998
2 67065 49.9997 290.9015 0001092 183.4165 176.6700 13.29329608 29000
Epoch: Jul 13, 2026 • Age: 14 hours

現在のステータス

高度 1155.5 km
遠地点 / 近地点 N/A
速度 7.28 km/s
衛星直下点 -20.95°S, 54.27°W
打ち上げ日 Dec 11, 2025
運用期間 0.5 years
タイプ other

技術仕様

分類 Payload
質量 800.00 kg
乾燥質量 800.00 kg
総質量 800.00 kg
長さ 3.00 m
直径 1.00 m
スパン 10.00 m
形状 Box + 2 Pan
製造者 SECM
バスタイプ Xingwang S
フェーズステータス In Orbit
所有者/国 ZXW/CN

Most Searched